User: anonymous   Login
Location: Spruce Knob
(38.6995°N, 79.5330°W)
Time: 05:48:13
(UTC-05:00)
Language:

Transit 4A - Orbit

View from above orbital plane
View from above orbital plane
View from above satellite
View from above satellite

Ground track
Ground track

The orbit data is extracted from the following two-line orbital elements,

1 00116U 61015A   22018.88710226 -.00000026  00000-0  39369-4 0  9991
2 00116  66.8080 229.2460 0080068 318.4996  41.0020 13.91808501 72579
Epoch (UTC): 18 January 2022 21:17:25
Eccentricity: 0.0080068
inclination: 66.8080°
perigee height: 864 km
apogee height: 981 km
right ascension of ascending node: 229.2460°
argument of perigee: 318.4996°
revolutions per day: 13.91808501
mean anomaly at epoch: 41.0020°
orbit number at epoch: 7257

The dashed part of the orbit path shows where the satellite is in the earth's shadow,  

DLR